TimeBST,TemperatureF,Dew PointF,Humidity,Sea Level PressureIn,VisibilityMPH,Wind Direction,Wind SpeedMPH,Gust SpeedMPH,PrecipitationIn,Events,Conditions,WindDirDegrees,DateUTC
12:50 AM,51,49,89,29.75,9,South,4.6,,,,Scattered Clouds,170,2012-10-04 23:50:00
12:50 AM,51.8,48.2,88,29.74,6.2,South,4.6,-,N/A,,Mostly Cloudy,170,2012-10-04 23:50:00
1:50 AM,51.8,50.0,94,29.65,-9999.0,SE,6.9,-,N/A,,Mostly Cloudy,130,2012-10-05 00:50:00
2:50 AM,51.8,50.0,94,29.59,1.8,SE,8.1,-,N/A,,Scattered Clouds,130,2012-10-05 01:50:00
3:50 AM,55,54,94,29.52,3,South,10.4,,,,Mostly Cloudy,180,2012-10-05 02:50:00
3:50 AM,55.4,53.6,94,29.50,-9999.0,South,10.4,-,N/A,,Mostly Cloudy,180,2012-10-05 02:50:00
4:50 AM,59.0,57.2,94,29.47,6.2,SW,16.1,-,N/A,Rain,Light Rain,220,2012-10-05 03:50:00
5:50 AM,60.8,59.0,94,29.50,4.3,WSW,21.9,33.4,N/A,Rain,Rain,250,2012-10-05 04:50:00
6:50 AM,52,49,85,29.64,31,NW,16.1,,,Rain,Light Rain,320,2012-10-05 05:50:00
6:50 AM,51.8,48.2,88,29.62,6.2,NW,16.1,-,N/A,Rain,Light Rain,320,2012-10-05 05:50:00
7:50 AM,51.8,50.0,94,29.62,6.2,SSW,5.8,-,N/A,,Mostly Cloudy,210,2012-10-05 06:50:00
8:50 AM,53.6,50.0,88,29.68,6.2,West,10.4,-,N/A,Rain,Light Rain,260,2012-10-05 07:50:00
9:50 AM,54,50,81,29.73,31,West,10.4,,,Rain,Light Rain,260,2012-10-05 08:50:00
9:50 AM,53.6,50.0,88,29.71,6.2,West,10.4,-,N/A,,Mostly Cloudy,260,2012-10-05 08:50:00
10:50 AM,57.2,50.0,77,29.74,6.2,West,13.8,-,N/A,,Mostly Cloudy,270,2012-10-05 09:50:00
11:50 AM,59.0,46.4,63,29.74,6.2,West,17.3,-,N/A,,Mostly Cloudy,270,2012-10-05 10:50:00
12:50 PM,59,46,52,29.79,34,West,17.3,,,,Partly Cloudy,270,2012-10-05 11:50:00
12:50 PM,59.0,46.4,63,29.77,6.2,West,17.3,-,N/A,,Mostly Cloudy,270,2012-10-05 11:50:00
1:50 PM,59.0,44.6,59,29.80,6.2,West,15.0,-,N/A,,Overcast,270,2012-10-05 12:50:00
2:50 PM,57.2,46.4,67,29.80,6.2,West,12.7,-,N/A,Rain,Light Rain,270,2012-10-05 13:50:00
3:50 PM,57,47,60,29.82,25,WNW,6.9,,,Rain,Light Rain,290,2012-10-05 14:50:00
3:50 PM,57.2,46.4,67,29.80,6.2,WNW,6.9,-,N/A,Rain,Light Rain,290,2012-10-05 14:50:00
4:50 PM,53.6,50.0,88,29.80,6.2,West,6.9,-,N/A,Rain,Rain,270,2012-10-05 15:50:00
5:50 PM,53.6,50.0,88,29.83,6.2,WNW,6.9,-,N/A,Rain,Rain,300,2012-10-05 16:50:00
6:50 PM,50,47,87,29.85,3,NW,8.1,,,,Scattered Clouds,320,2012-10-05 17:50:00
6:50 PM,50.0,48.2,94,29.83,3.1,NW,8.1,-,N/A,,Mostly Cloudy,320,2012-10-05 17:50:00
7:50 PM,50.0,46.4,87,29.83,6.2,NNW,2.3,-,N/A,,Mostly Cloudy,340,2012-10-05 18:50:00
8:50 PM,48.2,46.4,93,29.83,3.7,WNW,2.3,-,N/A,,Mostly Cloudy,290,2012-10-05 19:50:00
9:50 PM,48,46,92,29.84,3,NE,3.5,,,,Scattered Clouds,50,2012-10-05 20:50:00
9:50 PM,48.2,46.4,93,29.83,3.1,NE,3.5,-,N/A,,Mostly Cloudy,50,2012-10-05 20:50:00
10:50 PM,48.2,46.4,93,29.80,3.7,East,4.6,-,N/A,,Mostly Cloudy,90,2012-10-05 21:50:00
11:50 PM,48.2,46.4,93,29.80,-9999.0,East,3.5,-,N/A,,Mostly Cloudy,90,2012-10-05 22:50:00